FENGYUN 1C DEB, 29978

Orbit data source: Space-Track

FENGYUN 1C DEB, 29978 is space debris in SSO originally from a launch on Mon, 10 May 1999 UTC launched from the Taiyaun Space Center, China (TSC). Fengyun 1C debris stems from the Chinese weather satellite Fengyun-1C, which was intentionally destroyed by a Chinese anti-satellite missile in 2007. This event dramatically increased the amount of space debris, with thousands of trackable fragments posing hazards to satellites and human spaceflight. The Fengyun 1C debris cloud has become a focal point in discussions about space sustainability and the need for international regulations to prevent the creation of new debris.

Loading next visibility...
Identifier
29978, 1999-025LC
Orbit
SSO
Country
Flag of CNCN / PRC
Related business
Manufacturer
Unknown
Mission
Spacecraft
Bus & Motor
Unknown
Mass
Unknown
Launch date (UTC)
1999-05-10 (27 years ago)
Launch vehicle
Unknown
Launch site
Taiyaun Space Center, China (TSC)
Object type
Payload
Rocket body
Debris
Shape & HBR
Unknown shape, 0.1 m
Radar Cross Section
Small (<0.1 m²)

Expand to show TLE details & history
Last TLE update: 9 hours ago

TLE from 9 hours ago
0 FENGYUN 1C DEB
1 29978U 99025LC  26145.11565898 -.00000099  00000-0 -38826-4 0  9992
2 29978  99.0332 197.6723 0075320 324.6408  64.8327 13.95960433985962
Epoch: 2026-05-25T02:46Z
TLE epoch observation values (Epoch: 2026-05-25T02:46:32.935Z)
Latitude
29.8952°
Longitude
-91.88945°
Altitude
888.514 km
Speed
7.422 km/s
True Right ascension
12h 49m 49s
True Declination
29° 44' 58"
Sunlit
Object was in daylight at epoch
Visualization orbit readout
Latitude
Unknown
Longitude
Unknown
Altitude
Unknown
Speed
Unknown
Apparent Right ascension
Unknown
Apparent Declination
Unknown
Sunlit
N/A
Visualization observer readout
Local Sidereal Time
21:22:50
Azimuth
Unknown
Elevation
Unknown
Doppler factor
Unknown
Orbital elements
Apogee altitude
959.88 km
Perigee altitude
850.167 km
Semi-major axis
7,283.16 km
Eccentricity
0.00753
Inclination
99.0332°
RAAN
197.6723°
Arg. of periapsis
324.6408°
True anomaly
65.61698°
Mean anomaly
64.8327°
Eccentric anomaly
65.22453°
Mean motion
3.49191 °/min
Orbital period
103.1 mins
BSTAR
-0.000038826
Loading maneuver chart data...
Computing Atmospheric mass density...
Loading historical data...
Loading historical data...
Loading historical data...
Loading historical data...
Loading historical data...
Loading historical data...
Loading historical data...

Documentation

Showing up to 5 results
|